Regional Weather Roundup
Issued by NWS

Home | Current Version | Previous Version | Text Only | Print | Product List | Glossary Off
Versions: 1 2 3 4 5 6 7 8 9 10 11 12 13 14 15 16 17 18 19 20 21 22 23 24 25 26 27 28 29 30 31 32 33 34 35 36 37 38 39 40 41 42 43 44 45 46 47 48 49 50

000
ASUS43 KIND 310459
RWRIN

WEATHER ROUNDUP FOR INDIANA
NATIONAL WEATHER SERVICE INDIANAPOLIS IN
100 AM EDT FRI JUL 31 2015

NOTE: "FAIR" INDICATES FEW OR NO CLOUDS BELOW 12,000 FEET WITH NO
SIGNIFICANT WEATHER AND/OR OBSTRUCTIONS TO VISIBILITY.

* - STATION DOES NOT REPORT WEATHER SUCH AS PRECIPITATION OR FOG.

+ - STATION NOT QUALITY CONTROLLED BY THE NATIONAL WEATHER SERVICE.
    USE DATA WITH CAUTION...ESPECIALLY DEWPOINT AND RELATIVE
    HUMIDITY OBSERVATIONS.

INZ001>003-010>013-019-020-310600-
NORTHWEST INDIANA

CITY           SKY/WX    TMP DP  RH WIND       PRES   REMARKS
MONTICELLO +   CLEAR     68  64  85 CALM      30.04S
RENSSELAER +   CLEAR     68  66  94 SW5       30.04S

$$

LMZ046-743>745-310600-
SOUTHERN LAKE MICHIGAN

STATION/POSITION TIME  TEMP    WIND        PRES    WAVE
                       AIR SEA DIR/SP/G            HT
                 (UTC) (F)     (DEG/KT/KT) (MB)    (FT)
BURNS HARBOR     0400   78     240/ 10/ 12 1016.6S
MICHIGAN CITY    0400   75     180/  9/ 10   N/A
5NW MICH CITY    0400   76 75  240/  8/ 10   N/A     1

$$

INZ004-005-014>016-021>024-310600-
NORTH CENTRAL INDIANA

CITY           SKY/WX    TMP DP  RH WIND       PRES   REMARKS
GOSHEN         CLEAR     66  59  78 SW7       30.02S
SOUTH BEND     CLEAR     70  60  70 CALM      30.02S

$$

INZ006>009-017-018-025>027-310600-
NORTHEAST INDIANA

CITY           SKY/WX    TMP DP  RH WIND       PRES   REMARKS
ANGOLA *+      CLEAR     64  61  88 CALM      30.02S
FORT WAYNE     CLEAR     66  60  81 SW7       30.04S

$$

INZ028-029-035-036-043>045-051>053-310600-
WEST CENTRAL INDIANA

CITY           SKY/WX    TMP DP  RH WIND       PRES   REMARKS
CRAWFORDSVL +  CLEAR     62  62 100 CALM        N/A
GREENCASTLE +  CLEAR     63  59  88 CALM      30.09S
LAFAYETTE      CLEAR     67  64  90 CALM      30.05S
TERRE HAUTE    CLEAR     66  63  90 CALM      30.08S

$$

INZ030>032-037>040-046>048-054>057-064-065-310600-
CENTRAL INDIANA

CITY           SKY/WX    TMP DP  RH WIND       PRES   REMARKS
GREENWOOD *+   CLEAR     64  61  88 CALM      30.08S
INDIANAPOLIS   PTCLDY    71  61  70 W5        30.06S
-EAGLE CREEK   CLEAR     69  62  78 CALM      30.06F
KOKOMO *+      CLEAR     66  59  77 W6        30.05S
MT COMFORT *+  CLEAR     64 N/A N/A SW5       30.08S
SHELBYVILLE    CLEAR     66  61  84 SW3       30.07S

$$

INZ033-034-041-042-049-050-058-059-310600-
EAST CENTRAL INDIANA

CITY           SKY/WX    TMP DP  RH WIND       PRES   REMARKS
MUNCIE         CLEAR     68  60  75 W7        30.06S

$$

INZ060-061-067>069-081>083-085>088-310600-
SOUTHWEST INDIANA

CITY           SKY/WX    TMP DP  RH WIND       PRES   REMARKS
EVANSVILLE     CLEAR     75  64  68 W3        30.09S
HUNTINGBURG *+ CLEAR     66  63  88 CALM      30.09S

$$

INZ062-063-066-070>080-084-089>092-310600-
SOUTH CENTRAL AND SOUTHEAST INDIANA

CITY           SKY/WX    TMP DP  RH WIND       PRES   REMARKS
BLOOMINGTON    CLEAR     64  62  93 CALM      30.09S
MADISON *+     CLEAR     64  63  94 CALM      30.10S
SEYMOUR +      CLEAR     64  64 100 CALM      30.08S

$$




USA.gov is the U.S. government's official web portal to all federal, state and local government web resources and services.